ES'HAIL 2 (43700 NORAD) Tracking and Keplerian Element Data

This shows tracking and keplerian element data for the satellite.

Feedback or suggestion? Click here.




ElementValue
Catalog43700
NameES'HAIL 2
Epoch Orbit2588
Epoch Day354.10253131
Epoch Year2025
RAAN48.0623
Inclination0.0122
Eccentricity9.73E-05
Argument of Perigee242.1069
Mean Anonmoly221.4822
Mean Motion1.00272122
Decay Rate1.68E-06
L11 43700U 18090A 25354.10253131 .00000168 00000+0 00000+0 0 9990
L22 43700 0.0122 48.0623 0000973 242.1069 221.4822 1.00272122 25888



Live tracking and technical data element details for ES'HAIL 2 (NORAD 43700). ES'HAIL 2 can be tracked NOW for your location showing map with azimuth and elevation plus other details from your city location.







IsCatalogInMostPopularTable: catalog: 43700, numindb: 13204
Update: records affected: 1



GetName: 43700 ES'HAIL 2

Hit Count: updated at: Mon, 18 May 2026 09:49:37 GMT